Location: Kra?nica
(53.4833°N, 14.6167°E)
Time: 05:43:53
(UTC+00:00)

Cosmos 676 Rocket - Pass Details

Date: 23 May 2024
Orbit: 752 x 782 km, 74.0° (Epoch: 15 June)

Event Time Altitude Azimuth Distance (km) Brightness Sun altitude
Exits shadow 00:42:50 18° 210° (SSW) 1,859 5.3 -12.5°
Maximum altitude 00:46:54 80° 297° (WNW) 800 4.1 -12.3°
Drops below altitude 10° 00:52:16 10° 25° (NNE) 2,350 8.1 -11.9°
Sets 00:54:40 0° 27° (NNE) 3,282 9.5 -11.7°
